Погода в Вожеге

Поиск расширенной информации на нашем сайте:

Полезная информация:

Новости сайта



02.01.2020
Опубликован Долгосрочный прогноз погоды по городам России и ближнего зарубежья на январь 2020 года.
Карты: Прогноз на январь и февраль 2020 года, Сравнение прогнозируемой аномалии приземной температуры воздуха на январь 2020 года по разным моделям.




Погода в Вожеге - сегодня

Время (UTC), дата Ветер
(°,м/с) 
Видим.   Явления Облачность Т
(°С)
Тd
(°С)
f(%) Тe
(°С)
Pmin
(гПа)
dP
(гПа)
Po
(мм)
O2
(г/м3)
Тmin Tmax R s Состояние
почвы
15 29.11.20 120 (ЮВ) 20000 м    10/10 300 м 
[St]
-5.3 -6 95 -7  1037.9  -0.3  759  312    -5.3       
18 29.11.20 120 (ЮВ) 20000 м    10/10 210 м 
[St]
-4.4 -5.3 93 -6  1037.4  -0.4  758  311           
21 29.11.20 140 (ЮВ) 4000 м  дымка  10/10 100 м 
[St]
-4 -4.5 96 -6  1037  -0.4  758  311           
00 30.11.20 120 (ЮВ) 4000 м  дымка  10/10 120 м 
[St]
-3.9 -4.1 98 -7  1036.1  -0.8  758  310           
03 30.11.20 140 (ЮВ) 4000 м  дымка  10/10 100 м 
[St]
-2.6 -2.9 98 -5  1035.1  -0.9  757  308  -5.3      13  равномерный
сухой снег
100% 
06 30.11.20 140 (ЮВ) 5000 м  дымка  10/10 100 м 
[St]
-1.4 -1.6 99 -3  1033.8  -1.1  756  306           
09 30.11.20 150 (ЮВ) 29000 м    10/10 300 м 
[St]
-0.1 -0.9 94 -3  1032.8  -0.9  755  305           
12 30.11.20 160 (Ю) 4{10}  45000 м    10/10 300 м 
[St]
-0.1 -1.5 90 -3  1031.3  -1.5  754  304           
15 30.11.20 160 (Ю) 20000 м    10/10 270 м кучево-дожд. 
[Cb cap]
-0.4 -1.6 92 -3  1029.8  -1.5  753  304    +0.1       
18 30.11.20 170 (Ю) 10 км  слаб. ливневой снег  10/10 240 м кучево-дожд. 
[Cb cap]
-0.8 -1.5 95 -3  1029.1  -0.7  753  304           
21 30.11.20 170 (Ю) 5{10}  10 км  слаб. ливневой снег  10/10 210 м кучево-дожд. 
[Cb cap]
-0.9 -1.6 95 -4  1028.7  -0.4  752  304           
00 01.12.20 170 (Ю) 10 км  слаб. ливневой снег  10/10 270 м кучево-дожд. 
[Cb cap]
-1.3 -1.8 96 -5  1028.5  -0.2  752  305           
03 01.12.20 170 (Ю) 10 км  слаб. ливневой снег  10/10 300 м кучево-дожд. 
[Cb cap]
-2 -2.7 95 -5  1028.3  -0.3  752  306  -2    13  равномерный
сухой снег
100% 
06 01.12.20 170 (Ю) 8000 м  слаб. ливневой снег  10/10 300 м кучево-дожд. 
[Cb cap]
-2.5 -3.1 96 -5  1028.3  -0.1  752  306  -2.5         
09 01.12.20 180 (Ю) 1900 м  ливневой снег  10/10 270 м кучево-дожд. 
[Cb cap]
-2.4 -3.1 95 -6  1028.7  0.5  752  306           
12 01.12.20 190 (Ю) 26000 м  в посл. час ливневой снег  10/10 240 м кучево-дожд. 
[Cb cap]
-2.3 -3 95 -5  1029.3  0.6  753  306           
15 01.12.20 190 (Ю) 20000 м    10/10 330 м 
[Frnb]
-2.2 -3.1 94 -6  1030.2  0.9  753  306    -2     
18 01.12.20 180 (Ю) 20000 м    10/10 330 м 
[Frnb]
-2.4 -3.4 93 -5  1031.4  1.1  754  307           
21 01.12.20 200 (Ю) 20000 м    10/10 240 м 
[Frnb]
-2.7 -3.5 94 -6  1031.8  0.4  755  307           
00 02.12.20 220 (ЮЗ) 20000 м    10/10 270 м 
[Frnb]
-2.6 -4 90 -5  1032.4  0.6  755  308           
03 02.12.20 220 (ЮЗ) 10 км  слаб. ливневой снег  9/9 300 м кучево-дожд. 
[Cb cap]
-2.6 -3.9 91 -5  1032.4  755  308  -2.7    0.0  13  равномерный
сухой снег
100% 
06 02.12.20 210 (ЮЗ) 9000 м  слаб. ливневой снег  10/10 240 м кучево-дожд. 
[Cb cap]
-2.8 -3.5 95 -5  1033.3  0.9  756  308  -2.8         
09 02.12.20 220 (ЮЗ) 9000 м  слаб. ливневой снег  10/10 270 м кучево-дожд. 
[Cb cap]
-2.3 -3.2 94 -4  1034.2  0.9  756  308           
12 02.12.20 210 (ЮЗ) 26000 м  в посл. час ливневой снег  9/9 300 м кучево-дожд. 
[Cb cap]
-2.5 -3.5 93 -5  1034.8  0.5  757  308           
15 02.12.20 220 (ЮЗ) 20000 м    10/10 270 м 
[Frnb]
-2.6 -3.7 92 -5  1035.4  0.6  757  308    -2.2  0.6     
Время (UTC), дата Ветер
(°,м/с) 
Видим.   Явления Облачность Т
(°С)
Тd
(°С)
f(%) Тe
(°С)
Pmin
(гПа)
dP
(гПа)
Po
(мм)
O2
(г/м3)
Тmin Tmax R s Состояние
почвы

Для получения пояснительной информации подведите курсор к названию столбца.

ПОГОДА в Вожеге - архив

Всё, что Вы хотите узнать о погоде в Вожеге - удобно и подробно!

Выберите нужную дату (начиная с 1 января 2019* года) и нажмите кнопку "Найти".
Будут отображены архивные сводки погоды по пункту Вожега, начиная с указанной даты.


Отображать данные в формате CSV (для использования в таблицах Excel)


Внимание! Наш архив погоды предназначен исключительно для личного некоммерческого использования в познавательных целях. Если Вам необходимы официальные справки о состоянии погоды (для производственных, юридических, коммерческих и т.п. целей), обращайтесь в органы Росгидромета.

*Примечание: данная дата относится к архиву по метеостанциям СССР (Россия, СНГ, Балтия).
Архив по метеостанциям Зарубежной Европы и Азии (кроме Китая) хранится 10 дней, по другим регионам земного шара (Китай, Африка, Америка, Австралия, Океания) - 1 день.

Вожега - район местоположения метеостанции


Название, широта, долгота, высота метеостанции:
Вожега 60.5°ш. 40.2°д. 202 м над ур. моря [Российская Федерация]

Дополнительная информация

В oтличие oт бoльшинства пoгoдных сайтoв мы публикуем пoдрoбную метеoинфoрмацию в детальнoм прoфессиoнальнoм фoрмате.

Характеристики температуры и влажнoсти вoздуха измеряются на высoте 2 м в тени вдали oт зданий и деревьев.
Скoрoсть ветра измеряется на высoте 10 м (на урoвне рoста челoвека скoрoсть ветра ниже в 1.5-2 раза). Если метеoстанция нахoдится в гoрoде или в лесу, тo скoрoсть ветра занижена на 2-4 м/с пo сравнению с oткрытым местoм. Скoрoсть ветра над акватoриями крупных рек и oзёр, а также на вершинах хoлмoв на 2-5 м/с выше, чем в oбычных услoвиях.
Атмoсфернoе давление в разных тoчках местнoсти мoжет значительнo oтличаться oт давления на метеoстанции, в зависимoсти oт услoвий рельефа (при пoдъёме на 10 м давление пoнижается примернo на 1 мм рт.ст.).